QPF
0.01 0.00 0.00 0.00 0.00 0.00 0.00 0.01 0.02 0.03 0.04 0.04 0.04 0.05 0.05 0.04 0.02 0.01 0.02 0.01 0.02 0.02 0.04 0.06 0.07 0.06 0.08 0.07 0.07 0.09 0.09 0.10 0.09 0.09 0.08 0.06 0.04 0.02 0.01 0.01 0.03 0.02 0.01
0.02 0.01 0.00 0.00 0.00 0.00 0.00 0.01 0.01 0.02 0.02 0.03 0.04 0.04 0.05 0.04 0.03 0.03 0.03 0.02 0.03 0.02 0.02 0.04 0.04 0.05 0.09 0.09 0.07 0.07 0.08 0.08 0.07 0.09 0.10 0.10 0.09 0.05 0.02 0.01 0.02 0.01 0.01
0.03 0.03 0.01 0.00 0.00 0.00 0.00 0.01 0.01 0.01 0.01 0.02 0.02 0.03 0.05 0.05 0.04 0.04 0.05 0.03 0.02 0.01 0.02 0.03 0.03 0.04 0.05 0.06 0.07 0.07 0.09 0.09 0.08 0.09 0.11 0.13 0.13 0.09 0.04 0.02 0.02 0.03 0.03
0.01 0.01 0.01 0.00 0.01 0.01 0.00 0.00 0.01 0.01 0.01 0.02 0.02 0.03 0.03 0.03 0.03 0.03 0.03 0.03 0.02 0.03 0.03 0.02 0.04 0.04 0.05 0.06 0.05 0.08 0.08 0.08 0.08 0.07 0.07 0.07 0.09 0.12 0.10 0.05 0.03 0.02 0.04
0.01 0.00 0.01 0.01 0.01 0.01 0.00 0.00 0.01 0.02 0.02 0.02 0.02 0.03 0.03 0.02 0.02 0.03 0.04 0.04 0.03 0.03 0.02 0.03 0.04 0.05 0.05 0.05 0.05 0.08 0.08 0.07 0.08 0.07 0.07 0.06 0.07 0.08 0.11 0.09 0.05 0.03 0.01
0.00 0.00 0.00 0.01 0.01 0.01 0.01 0.00 0.01 0.02 0.02 0.02 0.02 0.02 0.03 0.03 0.04 0.04 0.04 0.03 0.02 0.02 0.02 0.03 0.05 0.05 0.06 0.07 0.06 0.06 0.05 0.06 0.06 0.07 0.07 0.07 0.08 0.09 0.09 0.09 0.08 0.05 0.02
0.00 0.00 0.00 0.01 0.01 0.01 0.01 0.01 0.01 0.01 0.01 0.02 0.01 0.02 0.02 0.03 0.02 0.02 0.02 0.02 0.02 0.02 0.03 0.04 0.06 0.06 0.06 0.06 0.08 0.06 0.06 0.06 0.05 0.05 0.06 0.05 0.05 0.05 0.06 0.08 0.07 0.06 0.04
0.00 0.00 0.00 0.00 0.00 0.00 0.00 0.01 0.01 0.01 0.01 0.01 0.02 0.02 0.02 0.02 0.01 0.02 0.02 0.02 0.02 0.02 0.02 0.03 0.04 0.03 0.04 0.05 0.06 0.06 0.05 0.06 0.05 0.04 0.05 0.05 0.04 0.04 0.05 0.06 0.07 0.07 0.06
0.00 0.00 0.00 0.00 0.00 0.00 0.00 0.01 0.01 0.01 0.01 0.01 0.02 0.02 0.02 0.03 0.04 0.04 0.03 0.03 0.02 0.02 0.03 0.02 0.03 0.03 0.03 0.05 0.06 0.05 0.05 0.06 0.05 0.05 0.06 0.05 0.05 0.04 0.03 0.04 0.06 0.09 0.08
0.00 0.01 0.00 0.00 0.00 0.00 0.00 0.01 0.01 0.02 0.02 0.02 0.03 0.03 0.03 0.05 0.05 0.04 0.04 0.04 0.03 0.03 0.03 0.04 0.04 0.04 0.04 0.04 0.04 0.05 0.04 0.04 0.05 0.06 0.06 0.06 0.05 0.06 0.05 0.05 0.06 0.07 0.07
0.00 0.00 0.00 0.00 0.00 0.00 0.00 0.00 0.00 0.01 0.02 0.02 0.02 0.03 0.03 0.04 0.05 0.04 0.04 0.05 0.04 0.03 0.03 0.04 0.04 0.04 0.05 0.04 0.05 0.04 0.04 0.05 0.06 0.05 0.06 0.06 0.06 0.06 0.05 0.05 0.06 0.06 0.06
0.01 0.01 0.01 0.00 0.00 0.00 0.00 0.00 0.00 0.00 0.01 0.02 0.02 0.02 0.03 0.03 0.04 0.04 0.04 0.05 0.04 0.03 0.02 0.03 0.04 0.04 0.05 0.05 0.05 0.05 0.05 0.06 0.06 0.06 0.05 0.05 0.06 0.07 0.05 0.04 0.05 0.05 0.06
0.00 0.00 0.01 0.02 0.01 0.00 0.00 0.01 0.01 0.01 0.01 0.02 0.02 0.03 0.02 0.03 0.03 0.04 0.03 0.04 0.03 0.03 0.03 0.04 0.05 0.05 0.05 0.05 0.05 0.05 0.05 0.06 0.06 0.07 0.06 0.05 0.05 0.06 0.05 0.04 0.03 0.04 0.04
0.00 0.00 0.02 0.04 0.03 0.02 0.00 0.00 0.02 0.02 0.02 0.02 0.01 0.01 0.02 0.02 0.03 0.03 0.03 0.03 0.03 0.03 0.03 0.04 0.04 0.04 0.04 0.03 0.03 0.03 0.04 0.04 0.04 0.05 0.06 0.06 0.05 0.05 0.05 0.05 0.04 0.04 0.05
0.00 0.00 0.01 0.06 0.08 0.05 0.02 0.01 0.02 0.03 0.02 0.02 0.02 0.02 0.02 0.03 0.03 0.04 0.04 0.03 0.03 0.02 0.03 0.03 0.03 0.02 0.02 0.02 0.02 0.03 0.03 0.05 0.05 0.06 0.07 0.07 0.07 0.07 0.06 0.05 0.05 0.06 0.05
0.00 0.00 0.01 0.02 0.06 0.07 0.05 0.02 0.02 0.04 0.03 0.03 0.03 0.03 0.03 0.04 0.04 0.05 0.06 0.05 0.04 0.03 0.02 0.02 0.02 0.01 0.01 0.02 0.02 0.01 0.01 0.03 0.04 0.05 0.05 0.07 0.09 0.08 0.07 0.06 0.06 0.06 0.05
0.01 0.00 0.01 0.02 0.04 0.05 0.07 0.06 0.05 0.04 0.04 0.05 0.05 0.04 0.04 0.05 0.06 0.07 0.08 0.06 0.04 0.03 0.02 0.02 0.01 0.02 0.02 0.01 0.01 0.00 0.00 0.02 0.03 0.03 0.03 0.04 0.04 0.06 0.07 0.07 0.07 0.06 0.05
0.04 0.02 0.02 0.02 0.02 0.04 0.05 0.06 0.05 0.04 0.05 0.06 0.08 0.08 0.09 0.09 0.11 0.12 0.10 0.05 0.04 0.03 0.02 0.02 0.02 0.02 0.02 0.01 0.01 0.01 0.01 0.02 0.02 0.03 0.03 0.03 0.03 0.04 0.05 0.06 0.06 0.06 0.05
0.09 0.06 0.06 0.08 0.03 0.02 0.02 0.04 0.04 0.04 0.05 0.07 0.10 0.12 0.13 0.14 0.13 0.11 0.08 0.05 0.04 0.03 0.03 0.02 0.03 0.02 0.02 0.02 0.02 0.03 0.02 0.02 0.03 0.04 0.04 0.04 0.04 0.03 0.04 0.04 0.05 0.05 0.05
0.13 0.14 0.15 0.14 0.05 0.02 0.03 0.04 0.06 0.05 0.06 0.08 0.09 0.10 0.09 0.09 0.09 0.09 0.08 0.06 0.05 0.04 0.04 0.04 0.04 0.03 0.04 0.05 0.05 0.05 0.04 0.06 0.08 0.08 0.07 0.04 0.03 0.04 0.04 0.04 0.04 0.04 0.03
0.05 0.09 0.13 0.11 0.06 0.04 0.04 0.05 0.06 0.08 0.09 0.10 0.10 0.10 0.09 0.09 0.08 0.07 0.07 0.07 0.07 0.08 0.07 0.06 0.06 0.06 0.07 0.07 0.05 0.03 0.02 0.04 0.05 0.04 0.03 0.03 0.03 0.03 0.03 0.03 0.04 0.04 0.04
0.04 0.02 0.04 0.06 0.07 0.06 0.05 0.07 0.08 0.08 0.08 0.09 0.10 0.10 0.11 0.10 0.09 0.09 0.09 0.09 0.08 0.07 0.06 0.06 0.08 0.10 0.10 0.06 0.04 0.03 0.02 0.02 0.02 0.03 0.03 0.03 0.02 0.02 0.02 0.03 0.03 0.04 0.04
0.05 0.03 0.03 0.04 0.05 0.06 0.06 0.06 0.07 0.07 0.08 0.06 0.07 0.07 0.08 0.10 0.10 0.09 0.07 0.07 0.07 0.06 0.04 0.05 0.05 0.07 0.08 0.06 0.04 0.03 0.02 0.02 0.02 0.02 0.03 0.05 0.06 0.05 0.04 0.04 0.05 0.05 0.04
0.05 0.04 0.04 0.05 0.06 0.06 0.06 0.06 0.07 0.07 0.04 0.04 0.05 0.05 0.06 0.08 0.11 0.10 0.09 0.07 0.05 0.05 0.05 0.04 0.03 0.03 0.04 0.05 0.04 0.03 0.03 0.02 0.02 0.01 0.01 0.03 0.04 0.06 0.07 0.07 0.07 0.07 0.05
0.04 0.05 0.04 0.04 0.05 0.05 0.05 0.05 0.06 0.07 0.04 0.04 0.04 0.04 0.04 0.04 0.05 0.05 0.06 0.06 0.04 0.04 0.04 0.04 0.04 0.04 0.03 0.02 0.03 0.03 0.03 0.02 0.02 0.01 0.01 0.01 0.02 0.04 0.06 0.07 0.08 0.08 0.06
0.04 0.04 0.03 0.03 0.04 0.05 0.05 0.05 0.06 0.07 0.07 0.06 0.05 0.04 0.04 0.03 0.03 0.04 0.05 0.06 0.06 0.06 0.05 0.04 0.03 0.02 0.02 0.01 0.01 0.01 0.02 0.02 0.01 0.01 0.01 0.01 0.02 0.02 0.04 0.06 0.07 0.07 0.07
MSLP
1008.67 1008.49 1008.26 1008.03 1007.80 1007.63 1007.54 1007.56 1007.69 1007.90 1008.15 1008.40 1008.61 1008.75 1008.81 1008.81 1008.78 1008.77 1008.82 1008.97 1009.23 1009.60 1010.05 1010.56 1011.08 1011.58 1012.05 1012.47 1012.85 1013.20 1013.53 1013.83 1014.10 1014.34 1014.52 1014.63 1014.66 1014.61 1014.49 1014.34 1014.18 1014.05 1013.98
1009.19 1009.05 1008.85 1008.59 1008.32 1008.07 1007.90 1007.82 1007.86 1008.00 1008.21 1008.43 1008.61 1008.73 1008.75 1008.70 1008.60 1008.50 1008.45 1008.50 1008.67 1008.96 1009.37 1009.84 1010.36 1010.87 1011.34 1011.78 1012.15 1012.49 1012.80 1013.08 1013.34 1013.57 1013.75 1013.89 1013.95 1013.95 1013.88 1013.78 1013.66 1013.56 1013.50
1009.53 1009.46 1009.30 1009.07 1008.79 1008.50 1008.27 1008.12 1008.09 1008.17 1008.32 1008.50 1008.65 1008.74 1008.73 1008.62 1008.45 1008.27 1008.12 1008.06 1008.13 1008.34 1008.67 1009.10 1009.59 1010.09 1010.57 1011.00 1011.38 1011.71 1012.00 1012.27 1012.52 1012.74 1012.95 1013.11 1013.23 1013.29 1013.29 1013.25 1013.18 1013.12 1013.06
1009.64 1009.66 1009.58 1009.41 1009.15 1008.87 1008.61 1008.41 1008.33 1008.35 1008.45 1008.58 1008.70 1008.75 1008.70 1008.55 1008.31 1008.04 1007.80 1007.63 1007.59 1007.69 1007.94 1008.31 1008.76 1009.23 1009.70 1010.14 1010.51 1010.84 1011.13 1011.39 1011.64 1011.88 1012.10 1012.30 1012.47 1012.60 1012.67 1012.70 1012.68 1012.65 1012.60
1009.55 1009.67 1009.68 1009.59 1009.39 1009.13 1008.87 1008.65 1008.53 1008.50 1008.56 1008.65 1008.73 1008.74 1008.66 1008.46 1008.16 1007.81 1007.46 1007.19 1007.03 1007.03 1007.18 1007.47 1007.86 1008.31 1008.76 1009.19 1009.57 1009.90 1010.19 1010.45 1010.70 1010.95 1011.19 1011.43 1011.64 1011.83 1011.97 1012.05 1012.09 1012.08 1012.03
1009.35 1009.55 1009.66 1009.64 1009.51 1009.29 1009.05 1008.82 1008.67 1008.61 1008.62 1008.67 1008.71 1008.69 1008.57 1008.32 1007.96 1007.54 1007.10 1006.73 1006.46 1006.34 1006.39 1006.60 1006.93 1007.33 1007.76 1008.18 1008.56 1008.90 1009.19 1009.46 1009.71 1009.96 1010.22 1010.47 1010.73 1010.96 1011.15 1011.29 1011.36 1011.38 1011.33
1009.14 1009.41 1009.58 1009.64 1009.57 1009.39 1009.17 1008.95 1008.78 1008.68 1008.65 1008.66 1008.66 1008.60 1008.43 1008.14 1007.73 1007.25 1006.73 1006.26 1005.90 1005.68 1005.62 1005.74 1006.00 1006.35 1006.75 1007.16 1007.54 1007.88 1008.18 1008.44 1008.69 1008.94 1009.19 1009.46 1009.73 1009.99 1010.21 1010.39 1010.50 1010.53 1010.48
1009.03 1009.33 1009.55 1009.65 1009.62 1009.49 1009.28 1009.06 1008.87 1008.74 1008.67 1008.63 1008.59 1008.48 1008.28 1007.95 1007.50 1006.96 1006.39 1005.85 1005.39 1005.08 1004.93 1004.97 1005.16 1005.46 1005.82 1006.21 1006.58 1006.91 1007.21 1007.46 1007.70 1007.93 1008.17 1008.43 1008.70 1008.96 1009.20 1009.40 1009.53 1009.58 1009.55
1009.07 1009.37 1009.61 1009.74 1009.74 1009.62 1009.43 1009.20 1009.00 1008.83 1008.72 1008.63 1008.54 1008.40 1008.16 1007.80 1007.32 1006.74 1006.13 1005.53 1005.01 1004.63 1004.41 1004.37 1004.49 1004.73 1005.05 1005.41 1005.76 1006.08 1006.35 1006.59 1006.80 1007.00 1007.22 1007.44 1007.69 1007.95 1008.19 1008.40 1008.55 1008.62 1008.60
1009.26 1009.55 1009.79 1009.92 1009.93 1009.82 1009.63 1009.41 1009.18 1008.99 1008.84 1008.71 1008.57 1008.39 1008.12 1007.73 1007.24 1006.65 1006.02 1005.39 1004.84 1004.40 1004.13 1004.03 1004.08 1004.27 1004.54 1004.85 1005.17 1005.46 1005.70 1005.90 1006.07 1006.23 1006.39 1006.58 1006.79 1007.02 1007.26 1007.46 1007.62 1007.72 1007.72
1009.57 1009.84 1010.05 1010.17 1010.18 1010.08 1009.90 1009.68 1009.45 1009.23 1009.05 1008.88 1008.71 1008.49 1008.20 1007.81 1007.31 1006.73 1006.10 1005.48 1004.91 1004.46 1004.15 1004.00 1004.00 1004.13 1004.34 1004.59 1004.85 1005.09 1005.28 1005.43 1005.55 1005.65 1005.76 1005.90 1006.06 1006.25 1006.46 1006.66 1006.83 1006.94 1006.97
1009.92 1010.15 1010.34 1010.45 1010.46 1010.37 1010.20 1009.99 1009.77 1009.55 1009.35 1009.16 1008.96 1008.73 1008.42 1008.03 1007.54 1006.99 1006.39 1005.79 1005.25 1004.79 1004.46 1004.28 1004.23 1004.29 1004.44 1004.62 1004.81 1004.97 1005.09 1005.18 1005.23 1005.27 1005.32 1005.39 1005.50 1005.64 1005.82 1006.00 1006.17 1006.29 1006.35
1010.22 1010.43 1010.59 1010.68 1010.69 1010.63 1010.49 1010.32 1010.12 1009.91 1009.72 1009.52 1009.31 1009.05 1008.75 1008.37 1007.91 1007.39 1006.84 1006.29 1005.78 1005.35 1005.02 1004.81 1004.71 1004.71 1004.78 1004.87 1004.97 1005.05 1005.09 1005.10 1005.08 1005.05 1005.03 1005.04 1005.09 1005.18 1005.32 1005.47 1005.62 1005.75 1005.82
1010.43 1010.61 1010.74 1010.83 1010.86 1010.82 1010.73 1010.61 1010.45 1010.28 1010.10 1009.90 1009.69 1009.43 1009.13 1008.77 1008.34 1007.88 1007.38 1006.89 1006.43 1006.03 1005.71 1005.48 1005.34 1005.27 1005.26 1005.26 1005.26 1005.25 1005.20 1005.12 1005.03 1004.93 1004.84 1004.79 1004.78 1004.82 1004.90 1005.02 1005.14 1005.25 1005.33
1010.53 1010.68 1010.80 1010.89 1010.93 1010.94 1010.91 1010.84 1010.73 1010.61 1010.45 1010.27 1010.05 1009.80 1009.50 1009.16 1008.77 1008.35 1007.92 1007.49 1007.08 1006.72 1006.42 1006.18 1006.00 1005.87 1005.77 1005.68 1005.59 1005.48 1005.34 1005.19 1005.02 1004.86 1004.72 1004.61 1004.54 1004.52 1004.55 1004.61 1004.69 1004.77 1004.82
1010.55 1010.67 1010.77 1010.86 1010.94 1010.99 1011.02 1011.01 1010.96 1010.87 1010.74 1010.57 1010.36 1010.10 1009.80 1009.47 1009.11 1008.73 1008.35 1007.98 1007.63 1007.31 1007.03 1006.79 1006.58 1006.39 1006.22 1006.05 1005.87 1005.68 1005.47 1005.25 1005.03 1004.81 1004.62 1004.46 1004.34 1004.26 1004.23 1004.23 1004.25 1004.27 1004.28
1010.52 1010.62 1010.72 1010.82 1010.92 1011.02 1011.10 1011.14 1011.14 1011.09 1010.98 1010.81 1010.58 1010.31 1010.00 1009.67 1009.33 1008.98 1008.64 1008.32 1008.02 1007.74 1007.48 1007.25 1007.02 1006.79 1006.57 1006.34 1006.09 1005.83 1005.57 1005.30 1005.04 1004.78 1004.56 1004.36 1004.20 1004.07 1003.97 1003.90 1003.84 1003.79 1003.73
1010.50 1010.59 1010.69 1010.80 1010.93 1011.07 1011.19 1011.28 1011.31 1011.27 1011.16 1010.97 1010.73 1010.43 1010.10 1009.75 1009.41 1009.08 1008.77 1008.49 1008.22 1007.98 1007.75 1007.53 1007.30 1007.06 1006.80 1006.53 1006.25 1005.96 1005.66 1005.36 1005.08 1004.81 1004.56 1004.34 1004.14 1003.97 1003.81 1003.67 1003.54 1003.40 1003.26
1010.52 1010.61 1010.72 1010.85 1011.01 1011.18 1011.33 1011.44 1011.48 1011.45 1011.32 1011.11 1010.83 1010.49 1010.13 1009.75 1009.40 1009.06 1008.77 1008.51 1008.29 1008.08 1007.88 1007.68 1007.46 1007.22 1006.96 1006.68 1006.39 1006.09 1005.78 1005.48 1005.19 1004.92 1004.66 1004.42 1004.21 1004.00 1003.79 1003.59 1003.39 1003.17 1002.94
1010.58 1010.69 1010.83 1010.99 1011.17 1011.36 1011.53 1011.64 1011.68 1011.63 1011.48 1011.23 1010.91 1010.53 1010.13 1009.72 1009.34 1009.00 1008.71 1008.47 1008.27 1008.09 1007.92 1007.75 1007.56 1007.34 1007.09 1006.83 1006.54 1006.25 1005.95 1005.66 1005.38 1005.11 1004.86 1004.62 1004.39 1004.16 1003.92 1003.68 1003.41 1003.13 1002.82
1010.65 1010.81 1010.98 1011.18 1011.38 1011.59 1011.76 1011.87 1011.90 1011.82 1011.64 1011.36 1010.99 1010.58 1010.13 1009.70 1009.29 1008.94 1008.65 1008.42 1008.23 1008.07 1007.93 1007.79 1007.63 1007.44 1007.22 1006.98 1006.72 1006.44 1006.16 1005.89 1005.62 1005.36 1005.11 1004.87 1004.64 1004.40 1004.15 1003.89 1003.59 1003.27 1002.91
1010.70 1010.92 1011.14 1011.37 1011.60 1011.81 1011.98 1012.08 1012.09 1011.99 1011.78 1011.47 1011.07 1010.63 1010.16 1009.70 1009.28 1008.92 1008.62 1008.39 1008.21 1008.07 1007.95 1007.82 1007.69 1007.53 1007.35 1007.13 1006.90 1006.64 1006.37 1006.10 1005.84 1005.58 1005.34 1005.10 1004.87 1004.64 1004.39 1004.14 1003.85 1003.51 1003.13
1010.71 1010.99 1011.26 1011.52 1011.76 1011.97 1012.13 1012.21 1012.20 1012.08 1011.85 1011.53 1011.12 1010.66 1010.18 1009.72 1009.29 1008.92 1008.62 1008.38 1008.21 1008.07 1007.96 1007.85 1007.74 1007.60 1007.44 1007.24 1007.02 1006.77 1006.51 1006.24 1005.97 1005.71 1005.46 1005.22 1004.99 1004.77 1004.55 1004.31 1004.05 1003.76 1003.39
1010.67 1011.00 1011.30 1011.57 1011.82 1012.02 1012.16 1012.22 1012.19 1012.06 1011.82 1011.49 1011.09 1010.64 1010.17 1009.72 1009.29 1008.93 1008.62 1008.38 1008.19 1008.05 1007.94 1007.84 1007.73 1007.60 1007.45 1007.26 1007.04 1006.79 1006.52 1006.23 1005.95 1005.66 1005.39 1005.14 1004.92 1004.71 1004.52 1004.33 1004.13 1003.88 1003.58
1010.59 1010.94 1011.25 1011.52 1011.75 1011.92 1012.04 1012.07 1012.02 1011.88 1011.65 1011.33 1010.95 1010.53 1010.09 1009.65 1009.25 1008.89 1008.58 1008.34 1008.14 1007.99 1007.86 1007.75 1007.64 1007.51 1007.35 1007.16 1006.93 1006.67 1006.38 1006.07 1005.76 1005.45 1005.15 1004.89 1004.66 1004.46 1004.30 1004.16 1004.01 1003.84 1003.61
1010.49 1010.83 1011.13 1011.37 1011.56 1011.69 1011.76 1011.77 1011.69 1011.54 1011.32 1011.03 1010.68 1010.30 1009.90 1009.49 1009.12 1008.77 1008.47 1008.22 1008.02 1007.85 1007.71 1007.59 1007.46 1007.32 1007.16 1006.96 1006.72 1006.44 1006.14 1005.80 1005.46 1005.12 1004.80 1004.51 1004.27 1004.08 1003.94 1003.84 1003.74 1003.64 1003.48
Thickness
5831 5829 5826 5822 5816 5810 5805 5801 5797 5794 5792 5788 5785 5783 5783 5784 5785 5785 5783 5781 5780 5778 5777 5775 5773 5773 5770 5769 5768 5766 5764 5763 5764 5760 5758 5763 5768 5769 5770 5770 5769 5769 5769
5830 5828 5826 5823 5818 5812 5807 5804 5800 5797 5794 5792 5790 5789 5788 5788 5788 5788 5786 5784 5782 5780 5779 5776 5774 5773 5771 5769 5768 5766 5762 5762 5764 5758 5753 5751 5755 5762 5770 5770 5768 5769 5769
5831 5828 5826 5824 5821 5815 5811 5809 5804 5801 5798 5797 5794 5792 5790 5788 5788 5787 5786 5786 5784 5782 5780 5778 5777 5775 5773 5770 5768 5767 5763 5759 5762 5763 5756 5748 5745 5753 5762 5767 5767 5766 5766
5838 5833 5829 5826 5824 5821 5817 5813 5808 5805 5802 5800 5796 5792 5788 5785 5787 5788 5789 5788 5787 5784 5782 5780 5778 5776 5775 5772 5770 5769 5766 5762 5758 5761 5763 5761 5758 5749 5749 5758 5763 5765 5764
5842 5837 5834 5831 5829 5826 5821 5816 5811 5807 5804 5802 5799 5794 5792 5791 5791 5791 5789 5788 5788 5786 5784 5782 5780 5777 5775 5773 5771 5769 5767 5765 5761 5760 5760 5760 5759 5757 5749 5746 5753 5758 5762
5846 5843 5840 5834 5831 5829 5824 5819 5812 5808 5806 5803 5800 5797 5794 5792 5790 5789 5787 5786 5787 5787 5786 5784 5781 5778 5775 5773 5772 5770 5767 5765 5764 5762 5761 5758 5756 5754 5752 5747 5749 5751 5757
5848 5843 5838 5833 5831 5827 5825 5821 5814 5808 5806 5803 5801 5798 5796 5794 5791 5789 5788 5786 5786 5786 5785 5784 5781 5779 5776 5774 5772 5769 5767 5766 5763 5762 5761 5761 5759 5759 5755 5750 5748 5749 5754
5849 5845 5841 5835 5832 5829 5826 5823 5816 5810 5807 5804 5801 5800 5797 5795 5794 5792 5791 5789 5787 5787 5787 5784 5781 5778 5776 5774 5772 5769 5767 5766 5763 5762 5760 5759 5760 5760 5757 5753 5748 5744 5746
5848 5846 5843 5838 5834 5831 5827 5824 5818 5812 5808 5805 5801 5799 5798 5795 5793 5793 5791 5790 5789 5788 5787 5783 5779 5777 5775 5773 5770 5768 5766 5765 5763 5761 5760 5758 5759 5759 5759 5757 5753 5744 5737
5845 5845 5843 5841 5836 5832 5828 5825 5820 5813 5810 5806 5803 5800 5797 5795 5793 5792 5790 5789 5787 5786 5784 5781 5777 5775 5773 5770 5768 5766 5765 5763 5761 5760 5758 5757 5757 5757 5757 5755 5753 5750 5743
5841 5842 5841 5840 5837 5832 5827 5822 5818 5812 5808 5806 5803 5800 5797 5795 5793 5790 5789 5787 5785 5783 5780 5778 5775 5772 5770 5768 5765 5763 5762 5760 5758 5758 5757 5755 5755 5753 5753 5753 5752 5749 5746
5838 5838 5837 5833 5830 5826 5823 5819 5815 5811 5807 5804 5801 5798 5795 5793 5790 5788 5786 5784 5781 5779 5777 5775 5772 5770 5768 5766 5764 5760 5759 5756 5754 5754 5753 5752 5752 5750 5749 5748 5747 5746 5745
5828 5829 5827 5824 5822 5819 5818 5814 5812 5809 5806 5802 5797 5793 5791 5789 5786 5784 5782 5780 5777 5775 5773 5771 5768 5766 5765 5763 5761 5759 5756 5755 5753 5751 5749 5748 5747 5745 5745 5744 5743 5743 5742
5817 5817 5815 5814 5813 5812 5810 5810 5806 5806 5803 5798 5793 5789 5787 5785 5782 5781 5778 5775 5772 5770 5768 5767 5764 5763 5762 5760 5758 5755 5753 5751 5749 5748 5746 5745 5743 5742 5741 5740 5738 5738 5735
5806 5806 5805 5804 5803 5803 5803 5804 5801 5800 5798 5793 5788 5785 5783 5780 5777 5775 5773 5770 5767 5765 5764 5762 5760 5760 5757 5756 5753 5751 5749 5746 5744 5743 5742 5742 5740 5739 5737 5735 5733 5732 5729
5795 5796 5796 5795 5794 5792 5792 5794 5793 5792 5791 5786 5783 5780 5777 5774 5771 5768 5766 5764 5761 5759 5757 5756 5755 5754 5753 5750 5748 5745 5744 5742 5740 5738 5738 5737 5736 5733 5732 5730 5729 5726 5724
5784 5786 5785 5786 5785 5785 5785 5783 5785 5785 5782 5779 5776 5774 5771 5767 5764 5762 5759 5756 5755 5753 5751 5750 5749 5747 5746 5744 5742 5740 5738 5737 5735 5733 5732 5732 5732 5728 5726 5724 5723 5721 5720
5774 5774 5776 5777 5779 5779 5778 5777 5776 5774 5773 5770 5767 5765 5762 5759 5756 5754 5752 5751 5750 5748 5746 5744 5743 5741 5739 5737 5735 5733 5731 5731 5729 5728 5727 5725 5723 5722 5719 5717 5716 5715 5714
5766 5765 5765 5765 5766 5768 5768 5767 5765 5765 5763 5761 5758 5756 5754 5750 5747 5745 5745 5744 5742 5741 5740 5739 5737 5735 5733 5731 5728 5725 5724 5723 5722 5722 5721 5719 5716 5714 5711 5709 5707 5707 5707
5758 5755 5755 5753 5752 5755 5757 5755 5753 5752 5751 5751 5751 5749 5746 5743 5740 5739 5738 5737 5735 5734 5734 5733 5733 5731 5728 5726 5723 5719 5718 5717 5715 5714 5714 5712 5709 5706 5703 5701 5699 5697 5698
5746 5745 5744 5742 5742 5744 5745 5742 5741 5740 5741 5742 5741 5740 5737 5735 5733 5732 5731 5730 5728 5727 5727 5726 5726 5725 5723 5720 5717 5714 5712 5710 5708 5707 5705 5703 5701 5697 5695 5693 5692 5691 5690
5734 5734 5733 5732 5734 5735 5734 5731 5728 5730 5732 5731 5730 5729 5728 5727 5726 5724 5722 5721 5720 5718 5718 5717 5717 5718 5717 5714 5711 5708 5705 5702 5700 5699 5698 5695 5691 5689 5687 5686 5686 5684 5681
5722 5723 5722 5720 5722 5723 5723 5719 5719 5721 5720 5719 5718 5718 5719 5719 5717 5715 5714 5713 5712 5710 5709 5709 5708 5709 5709 5706 5703 5699 5696 5694 5692 5691 5689 5685 5682 5680 5680 5680 5678 5675 5673
5711 5712 5711 5710 5710 5711 5712 5711 5711 5711 5710 5708 5708 5708 5708 5708 5708 5707 5706 5704 5703 5702 5701 5700 5699 5699 5698 5696 5692 5690 5686 5683 5681 5680 5677 5676 5674 5673 5672 5671 5670 5668 5667
5701 5700 5699 5698 5699 5701 5701 5701 5701 5700 5699 5699 5699 5700 5700 5699 5698 5696 5696 5696 5694 5694 5691 5690 5689 5687 5685 5684 5681 5680 5677 5675 5672 5668 5667 5667 5666 5665 5665 5664 5662 5661 5659
5689 5689 5688 5688 5689 5690 5690 5691 5691 5690 5689 5689 5690 5692 5692 5691 5690 5688 5686 5685 5684 5683 5681 5680 5679 5679 5676 5673 5671 5670 5667 5664 5660 5658 5659 5659 5658 5657 5656 5655 5653 5652 5651